Kakehashi - Orbit

View from above orbital plane
View from above orbital plane
View from above satellite
View from above satellite

Ground track
Ground track

The orbit data is extracted from the following two-line orbital elements,

1 25175U 98011A   13138.65167498 -.00000006  00000-0  19899-2 0  9952
2 25175 030.1809 322.0022 5293587 135.3789 343.6901 04.38920975252865
Epoch (UTC): 18 May 2013 15:38:24
Eccentricity: 0.5293587
inclination: 30.1809°
perigee height: 1038 km
apogee height: 17720 km
right ascension of ascending node: 322.0022°
argument of perigee: 135.3789°
revolutions per day: 4.38920975
mean anomaly at epoch: 343.6901°
orbit number at epoch: 25286

The dashed part of the orbit path shows where the satellite is in the earth's shadow,  

Developed and maintained by Chris Peat, Heavens-Above GmbH. Please read the updated FAQ before sending e-mail. Imprint. DLR